Date String (YYYY-MM-DD hh:mm:ss) UTC,Instrument flags,absolute air pressure of the measurement (hPa),sample flow rate (lpm),inlet stack bypass flow (lpm),air temperature of the measurement (°C),ambient temperature measured by the external sensor (°C),aerosol sample conditioner tube jacket temperature (°C),OPC LED temperature (°C),internal box temperature (°C),relative humidity of the measurement (%),span deviation,mass concentration of particles derived from Lorenz-Mie calculation of OPC scattering (μg/m³),mass concentration of particles derived from Lorenz-Mie calculation of OPC scattering (μg/m³),mass concentration of particles derived from Lorenz-Mie calculation of OPC scattering (μg/m³)
DateTimeUTC,F1_M11,P_M11,Q1_M11,Q2_M11,T1_M11,T2_M11,T3_M11,T4_M11,T5_M11,U1_M11,ZSPAN_M11,X0_M11,X2_M11,X1_M11
2023-10-07 08:00:00,SystemResetWarning,0838.9,4.99,000.00,026.6,025.0,000.0,035.0,028.2,18.5,0001.0,0009.30,0005.79,0005.33
2023-10-07 08:01:00,SystemResetWarning,0838.9,5.00,000.00,026.6,025.0,000.0,035.0,028.2,18.5,0000.6,0009.49,0005.82,0005.33
2023-10-07 08:02:00,SystemResetWarning,0838.9,5.00,000.00,026.5,025.0,000.0,035.0,028.2,18.6,0000.3,0009.76,0005.85,0005.34
2023-10-07 08:03:00,SystemResetWarning,0838.9,5.00,000.00,026.5,025.0,000.0,035.0,028.2,18.6,0000.5,0010.00,0005.85,0005.33
2023-10-07 08:04:00,SystemResetWarning,0839.0,5.00,000.00,026.5,025.0,000.0,035.0,028.2,18.5,0001.4,0009.92,0005.84,0005.33
2023-10-07 08:05:00,SystemResetWarning,0838.9,5.01,000.00,026.5,024.9,000.0,035.0,028.2,18.7,0001.5,0009.94,0005.84,0005.33
2023-10-07 08:06:00,SystemResetWarning,0838.8,5.00,000.00,026.5,024.9,000.0,035.0,028.2,18.8,0000.0,0009.99,0005.83,0005.31
2023-10-07 08:07:00,SystemResetWarning,0839.0,5.00,000.00,026.5,024.9,000.0,035.0,028.2,18.8,0000.0,0009.68,0005.81,0005.30
2023-10-07 08:08:00,SystemResetWarning,0838.9,5.00,000.00,026.5,024.9,000.0,035.0,028.2,18.7,0000.0,0009.73,0005.85,0005.30
2023-10-07 08:09:00,SystemResetWarning,0838.9,5.00,000.00,026.5,024.9,000.0,035.0,028.2,18.7,0001.4,0009.78,0005.84,0005.29
2023-10-07 08:10:00,SystemResetWarning,0838.9,5.00,000.00,026.5,024.9,000.0,035.0,028.2,18.8,0001.3,0009.77,0005.82,0005.29
2023-10-07 08:11:00,SystemResetWarning,0838.9,5.00,000.00,026.5,024.9,000.0,035.0,028.2,18.8,0000.3,0010.18,0005.81,0005.29
2023-10-07 08:12:00,SystemResetWarning,0838.9,5.00,000.00,026.5,024.9,000.0,035.0,028.2,18.9,0000.0,0010.48,0005.81,0005.30
2023-10-07 08:13:00,SystemResetWarning,0838.8,5.00,000.00,026.5,024.9,000.0,035.0,028.2,18.9,0000.0,0010.31,0005.79,0005.31
2023-10-07 08:14:00,SystemResetWarning,0838.9,5.00,000.00,026.5,024.9,000.0,035.0,028.1,18.9,0000.0,0009.88,0005.79,0005.32
2023-10-07 08:15:00,SystemResetWarning,0838.9,5.00,000.00,026.5,024.9,000.0,035.0,028.1,18.8,0000.0,0010.46,0005.77,0005.32
2023-10-07 08:16:00,SystemResetWarning,0838.9,5.00,000.00,026.5,024.9,000.0,035.0,028.1,18.9,0000.0,0010.62,0005.77,0005.32
2023-10-07 08:17:00,SystemResetWarning,0838.9,5.00,000.00,026.5,024.9,000.0,034.9,028.1,18.9,0000.0,0010.60,0005.78,0005.34
2023-10-07 08:18:00,SystemResetWarning,0838.9,4.99,000.00,026.5,024.9,000.0,034.9,028.1,18.9,0000.0,0010.65,0005.80,0005.35
2023-10-07 08:19:00,SystemResetWarning,0838.9,5.00,000.00,026.4,024.9,000.0,034.9,028.1,19.0,-000.5,0010.63,0005.79,0005.36
2023-10-07 08:20:00,SystemResetWarning,0838.9,5.01,000.00,026.4,024.9,000.0,034.9,028.1,19.0,-000.2,0010.53,0005.78,0005.38
2023-10-07 08:21:00,SystemResetWarning,0838.9,5.01,000.00,026.4,024.8,000.0,034.9,028.1,18.8,-000.0,0010.59,0005.83,0005.41
2023-10-07 08:22:00,SystemResetWarning,0838.9,4.99,000.00,026.4,024.8,000.0,034.9,028.1,18.8,-000.0,0010.89,0005.87,0005.44
2023-10-07 08:23:00,SystemResetWarning,0838.8,4.99,000.00,026.4,024.8,000.0,034.9,028.1,18.7,0000.5,0010.67,0005.93,0005.50
2023-10-07 08:24:00,SystemResetWarning,0838.9,5.01,000.00,026.4,024.8,000.0,034.9,028.1,18.7,0000.4,0011.20,0005.98,0005.52
2023-10-07 08:25:00,SystemResetWarning,0838.9,5.01,000.00,026.4,024.8,000.0,034.9,028.1,18.8,0000.4,0011.37,0006.01,0005.55
2023-10-07 08:26:00,SystemResetWarning,0838.8,5.01,000.00,026.4,024.8,000.0,034.9,028.1,18.7,0000.6,0010.74,0006.05,0005.58
2023-10-07 08:27:00,SystemResetWarning,0838.9,4.99,000.00,026.4,024.8,000.0,034.9,028.1,18.8,0001.8,0011.10,0006.09,0005.63
2023-10-07 08:28:00,SystemResetWarning,0838.9,5.00,000.00,026.4,024.8,000.0,034.9,028.1,18.8,0002.3,0011.34,0006.14,0005.66
2023-10-07 08:29:00,SystemResetWarning,0838.8,5.00,000.00,026.4,024.7,000.0,034.9,028.1,18.8,0002.2,0011.52,0006.20,0005.70
2023-10-07 08:30:00,SystemResetWarning,0838.8,5.02,000.00,026.4,024.8,000.0,034.9,028.1,18.8,0002.5,0011.54,0006.22,0005.72
2023-10-07 08:31:00,SystemResetWarning,0838.8,5.01,000.00,026.4,024.8,000.0,034.9,028.1,18.8,0001.6,0011.73,0006.26,0005.74
2023-10-07 08:32:00,SystemResetWarning,0838.8,4.99,000.00,026.4,024.8,000.0,034.9,028.1,18.8,0000.0,0011.98,0006.30,0005.76
2023-10-07 08:33:00,SystemResetWarning,0838.8,4.99,000.00,026.4,024.8,000.0,034.9,028.0,18.8,0000.0,0011.52,0006.32,0005.75
2023-10-07 08:34:00,SystemResetWarning,0838.8,5.00,000.00,026.4,024.8,000.0,034.9,028.0,18.7,0000.0,0011.95,0006.35,0005.75
2023-10-07 08:35:00,SystemResetWarning,0838.8,5.01,000.00,026.4,024.7,000.0,034.9,028.0,18.7,0000.0,0011.54,0006.35,0005.77
2023-10-07 08:36:00,SystemResetWarning,0838.8,5.01,000.00,026.4,024.7,000.0,034.9,028.0,18.7,0000.0,0011.40,0006.38,0005.78
2023-10-07 08:37:00,SystemResetWarning,0838.8,5.00,000.00,026.3,024.7,000.0,034.9,028.0,18.6,0000.0,0011.43,0006.39,0005.78
2023-10-07 08:38:00,SystemResetWarning,0838.8,5.01,000.00,026.3,024.7,000.0,034.9,028.0,18.6,0000.0,0011.03,0006.41,0005.77
2023-10-07 08:39:00,SystemResetWarning,0838.8,4.99,000.00,026.3,024.7,000.0,034.9,028.0,18.5,0000.0,0010.83,0006.40,0005.76
2023-10-07 08:40:00,SystemResetWarning,0838.8,4.99,000.00,026.3,024.7,000.0,034.8,028.0,18.5,0000.0,0010.71,0006.38,0005.76
2023-10-07 08:41:00,SystemResetWarning,0838.8,5.00,000.00,026.3,024.7,000.0,034.8,028.0,18.5,0000.0,0010.87,0006.40,0005.77
2023-10-07 08:42:00,SystemResetWarning,0838.8,5.01,000.00,026.3,024.7,000.0,034.8,028.0,18.5,0000.0,0010.81,0006.43,0005.79
2023-10-07 08:43:00,SystemResetWarning,0838.8,5.01,000.00,026.3,024.7,000.0,034.8,028.0,18.5,0000.0,0011.23,0006.39,0005.79
2023-10-07 08:44:00,SystemResetWarning,0838.7,5.00,000.00,026.3,024.7,000.0,034.8,028.0,18.5,0000.0,0011.28,0006.38,0005.80
2023-10-07 08:45:00,SystemResetWarning,0838.8,4.99,000.00,026.3,024.7,000.0,034.8,028.0,18.5,0000.0,0011.55,0006.34,0005.80
2023-10-07 08:46:00,SystemResetWarning,0838.7,5.01,000.00,026.3,024.7,000.0,034.8,028.0,18.5,0000.0,0011.57,0006.37,0005.80
2023-10-07 08:47:00,SystemResetWarning,0838.7,5.00,000.00,026.3,024.7,000.0,034.8,028.0,18.5,0000.0,0011.59,0006.39,0005.82
2023-10-07 08:48:00,SystemResetWarning,0838.7,5.00,000.00,026.3,024.7,000.0,034.8,027.9,18.5,0000.0,0011.72,0006.45,0005.86
2023-10-07 08:49:00,SystemResetWarning,0838.7,5.00,000.00,026.3,024.7,000.0,034.8,027.9,18.6,0000.0,0011.79,0006.47,0005.88
2023-10-07 08:50:00,SystemResetWarning,0838.7,5.00,000.00,026.3,024.7,000.0,034.8,027.9,18.6,0000.0,0011.96,0006.46,0005.88
2023-10-07 08:51:00,SystemResetWarning,0838.7,5.00,000.00,026.3,024.7,000.0,034.8,028.0,18.6,0000.0,0012.41,0006.49,0005.90
2023-10-07 08:52:00,SystemResetWarning,0838.7,5.00,000.00,026.3,024.7,000.0,034.8,027.9,18.5,0000.0,0012.31,0006.51,0005.92
2023-10-07 08:53:00,SystemResetWarning,0838.7,5.00,000.00,026.3,024.6,000.0,034.8,027.9,18.5,0000.0,0012.26,0006.51,0005.91
2023-10-07 08:54:00,SystemResetWarning,0838.7,5.00,000.00,026.3,024.6,000.0,034.8,027.9,18.5,0000.0,0011.77,0006.55,0005.93
2023-10-07 08:55:00,SystemResetWarning,0838.6,5.00,000.00,026.2,024.6,000.0,034.8,027.9,18.5,0000.0,0011.55,0006.56,0005.95
2023-10-07 08:56:00,SystemResetWarning,0838.6,5.01,000.00,026.2,024.6,000.0,034.7,027.9,18.4,0000.0,0010.88,0006.54,0005.93
2023-10-07 08:57:00,SystemResetWarning,0838.6,5.01,000.00,026.2,024.6,000.0,034.7,027.9,18.4,0000.0,0010.68,0006.49,0005.90
2023-10-07 08:58:00,SystemResetWarning,0838.6,4.99,000.00,026.2,024.6,000.0,034.7,027.9,18.4,0000.0,0010.67,0006.45,0005.87
2023-10-07 08:59:00,SystemResetWarning,0838.6,4.99,000.00,026.2,024.6,000.0,034.7,027.9,18.5,0000.0,0010.67,0006.39,0005.84
